Presure
286 291 271 268 275 260 268 255 256 255 260 260 250 238 242 251 245 245 240 253 280 283 309 167 161 175 141 173 165 161 167 148 164 149 199 171 190 150 155 157 166 184 161 150
279 269 279 259 259 257 251 258 247 246 238 259 261 241 241 235 234 233 252 240 259 272 309 171 192 169 223 238 208 186 204 187 161 165 158 192 197 197 187 160 170 192 222 175
268 280 278 253 258 242 258 252 251 239 251 222 251 245 242 227 245 227 233 230 246 265 266 221 171 185 174 175 178 189 160 158 186 161 164 165 162 188 187 176 187 180 157 170
294 286 263 281 250 257 250 250 247 245 238 243 238 242 231 236 230 254 233 247 243 272 223 217 197 195 194 166 166 192 169 210 205 193 205 182 179 183 171 185 185 195 213 183
162 297 272 278 264 250 255 239 247 248 237 245 250 232 252 231 238 234 269 249 256 253 214 210 202 229 188 181 208 188 206 210 210 206 201 193 163 167 149 182 184 194 166 174
314 290 271 280 253 254 273 238 254 226 238 251 237 249 235 244 256 247 244 232 256 271 206 211 211 204 199 207 219 229 179 184 181 187 211 206 222 194 193 160 189 163 164 182
152 315 287 260 281 267 258 247 254 243 241 258 252 246 247 248 246 239 260 259 248 263 227 203 209 221 202 225 207 167 209 194 214 210 204 200 201 207 189 182 200 188 176 181
239 114 293 253 264 286 261 267 261 256 218 263 248 245 259 213 248 244 252 219 241 261 227 222 212 208 200 170 216 212 181 201 213 191 192 193 202 209 193 218 197 194 192 167
135 220 124 233 237 282 263 284 273 276 271 170 257 255 263 272 256 255 254 252 251 195 234 206 215 183 187 193 187 229 216 231 197 212 212 156 203 203 199 196 194 173 182 191
153 139 121 139 226 229 231 229 232 280 269 280 283 265 264 259 260 310 259 212 223 229 241 210 190 235 188 209 225 203 216 178 193 186 199 171 213 177 174 220 177 203 184 184
137 200 178 145 196 179 104 234 226 221 214 220 223 235 250 258 267 273 272 251 265 248 201 204 214 172 225 199 209 177 179 211 180 218 215 194 194 189 207 194 208 191 201 195
189 159 144 196 137 209 168 164 215 168 141 217 219 242 249 234 234 240 245 252 263 273 257 211 223 229 209 259 200 216 218 174 170 176 193 218 198 184 204 198 210 192 171 203
200 165 148 165 124 121 111 170 202 95 202 210 191 222 230 184 225 230 146 242 251 261 262 266 265 176 279 277 214 212 216 206 209 214 223 174 181 233 172 194 185 222 203 222
170 181 150 195 164 140 150 194 139 133 197 169 168 169 173 182 215 157 194 206 169 240 145 159 204 246 230 231 238 247 182 237 242 249 257 262 293 269 279 290 284 288 273 242
167 160 157 193 170 138 163 143 148 143 154 189 187 178 169 169 174 179 195 158 166 216 192 154 212 159 202 189 157 199 202 205 187 176 224 266 246 270 285 242 287 280 311 330
170 176 165 145 180 165 186 145 142 140 140 143 193 139 193 184 151 194 166 189 173 188 200 181 159 138 142 165 209 186 197 178 176 175 216 253 236 284 260 288 323 221 411 318
215 214 175 171 146 193 199 155 164 141 169 180 145 144 148 134 138 157 157 145 149 196 161 195 191 147 142 137 146 144 186 193 210 241 248 256 274 286 280 310 487 470 453 444
235 217 214 179 178 165 153 170 175 162 158 199 186 184 169 153 184 152 156 135 166 150 151 147 145 194 209 218 157 188 171 223 233 241 245 264 282 263 300 475 455 442 462 475
197 230 224 215 212 215 206 177 171 158 165 211 178 206 182 177 170 171 137 143 128 186 154 147 211 158 210 200 180 239 157 227 249 245 254 281 262 300 466 442 439 520 522 522
199 189 228 230 215 215 215 219 217 217 214 200 208 188 209 157 201 187 142 178 127 182 147 185 149 227 226 210 222 179 227 241 249 252 265 262 282 292 440 426 430 519 518 511
232 201 188 222 222 216 215 218 217 216 220 218 217 217 222 218 139 185 158 141 183 177 131 187 155 172 202 217 231 180 248 242 256 258 264 286 290 436 427 414 421 501 497 492
241 222 206 185 182 205 220 221 219 217 219 220 217 213 214 209 213 196 186 144 188 213 128 144 199 227 154 173 227 226 244 255 256 268 247 270 291 432 412 408 410 445 481 468
211 164 216 213 201 186 189 199 204 211 208 210 205 209 200 157 214 176 175 203 189 193 131 140 224 153 186 236 181 237 237 252 258 261 253 270 291 424 402 397 396 414 436 463
249 238 188 223 214 194 212 194 194 193 199 199 202 198 193 208 170 155 171 216 127 220 132 160 206 157 147 225 246 254 230 252 255 237 256 289 303 416 401 393 387 398 405 415
258 248 200 176 219 221 198 203 199 214 203 209 204 184 205 138 205 167 205 180 156 219 143 148 143 162 239 244 212 241 255 243 240 252 271 297 308 414 401 386 380 378 379 386
260 254 230 233 232 197 205 215 193 210 207 202 194 193 200 207 194 173 208 179 162 204 141 161 238 173 174 241 250 243 250 248 236 251 265 286 332 410 401 379 369 373 366 366
264 259 252 194 239 216 234 233 226 218 213 171 175 214 170 205 184 180 168 203 172 227 141 237 240 167 180 238 246 217 237 254 238 255 284 289 398 411 400 380 364 359 359 351
Wind_Speed
35 46 36 42 56 45 63 48 54 49 61 65 54 39 44 50 48 36 32 18 30 16 17 65 59 63 41 58 52 51 61 29 54 39 84 65 78 49 56 59 68 87 66 60
32 17 37 41 47 43 35 54 45 41 32 52 50 47 51 40 41 39 20 25 17 21 20 68 64 63 75 76 72 67 83 69 54 56 55 82 89 98 83 62 73 98 91 84
14 31 45 24 48 21 54 52 48 35 46 17 52 50 51 41 32 46 36 48 36 30 45 72 63 69 64 61 67 69 41 49 61 56 59 64 63 88 89 77 92 84 55 79
25 28 28 49 38 49 48 45 45 41 38 34 46 46 49 48 40 23 47 33 48 21 74 77 70 72 72 61 60 76 64 94 96 79 102 79 78 85 75 86 96 104 86 97
6 34 32 49 51 43 41 30 42 44 34 34 40 47 40 47 44 42 26 32 36 44 72 74 73 78 69 64 79 76 84 90 97 99 97 91 58 64 54 89 96 112 75 80
33 35 21 45 23 37 43 12 42 10 34 37 35 32 46 40 27 33 43 54 31 31 71 74 78 72 69 79 74 88 44 68 67 75 100 100 100 98 104 65 103 72 78 99
7 28 21 24 36 34 30 8 36 26 30 32 32 36 39 39 38 44 24 30 45 34 73 64 72 82 70 87 76 57 83 69 95 96 76 90 99 105 70 84 113 81 88 96
43 8 21 35 25 21 22 29 20 26 13 24 28 28 28 30 36 41 43 20 60 42 71 78 72 70 67 24 77 80 49 79 90 63 85 82 101 108 94 102 109 111 109 84
13 30 9 36 34 19 26 20 18 18 24 10 17 17 15 18 29 26 34 45 39 16 74 62 76 29 23 42 47 82 88 93 81 99 104 57 95 111 106 106 113 83 98 113
13 8 11 11 29 27 30 33 33 14 9 5 6 6 8 9 13 12 31 16 58 63 66 60 33 83 31 67 84 77 91 51 71 60 86 59 112 68 73 112 86 122 110 109
8 17 10 12 19 11 14 25 24 22 24 26 23 20 18 15 11 7 4 23 20 46 42 42 72 25 78 66 54 46 52 84 61 98 114 90 92 96 123 106 128 114 129 130
1 12 3 10 4 17 11 8 20 7 1 20 21 15 15 14 13 11 8 5 2 2 23 62 75 71 73 67 72 86 89 59 66 68 92 111 111 102 127 128 139 132 89 140
9 17 13 8 10 23 14 5 12 17 12 13 11 17 15 7 11 7 24 5 5 4 7 10 11 22 18 31 83 86 95 86 91 106 104 81 96 117 82 130 111 152 150 153
24 19 23 9 14 10 4 1 4 7 4 1 3 4 3 2 3 13 3 4 11 5 30 27 22 22 28 25 28 34 46 45 50 59 61 64 68 66 74 79 82 90 104 144
31 30 26 19 20 9 21 11 12 14 15 4 5 6 7 10 5 7 9 14 14 13 13 23 20 29 25 29 45 36 41 46 57 48 52 72 66 81 83 80 90 94 107 95
39 34 36 26 24 28 22 20 20 17 12 21 15 15 14 14 20 18 14 17 19 21 20 27 27 40 42 43 44 45 55 59 67 70 72 88 73 94 88 100 113 111 77 94
40 37 41 38 26 29 27 32 31 23 23 21 26 32 23 22 26 26 25 30 28 30 23 33 37 46 48 52 56 59 60 59 66 84 87 95 99 98 98 106 67 67 67 66
46 41 42 45 39 39 31 35 31 28 30 31 30 27 28 28 25 31 32 30 32 36 36 43 49 43 51 45 58 65 61 72 79 87 94 103 101 96 104 65 67 68 65 60
43 46 46 45 44 42 41 41 41 36 35 34 30 34 35 32 32 33 34 38 31 39 46 48 43 51 45 50 64 73 54 75 93 94 106 109 99 110 61 65 67 53 45 38
48 43 51 48 47 45 43 44 42 40 39 36 38 38 39 31 39 38 36 40 32 41 43 45 49 64 64 58 73 68 80 92 100 102 110 100 108 110 62 67 68 44 38 32
62 54 44 53 50 50 48 47 47 46 45 43 43 42 43 43 33 43 38 39 39 43 40 53 50 60 51 73 80 69 94 95 105 107 111 114 113 61 60 65 66 43 32 25
71 63 60 44 39 51 53 51 50 49 49 46 45 44 45 44 46 45 43 43 46 54 38 52 56 72 58 65 85 83 97 106 108 110 94 109 116 54 62 62 63 49 32 26
66 52 61 65 56 44 43 46 46 47 46 46 44 46 44 35 51 41 40 55 51 50 40 52 73 57 69 88 72 93 91 107 111 106 101 109 115 51 59 57 59 54 38 24
82 77 57 69 67 52 60 49 49 46 46 46 47 45 43 52 41 44 42 65 32 72 41 55 61 58 54 85 93 101 86 106 110 90 105 114 113 48 49 50 51 49 44 37
88 83 61 55 71 70 56 56 53 58 53 53 51 39 54 32 57 47 61 40 51 71 48 54 54 59 88 93 84 95 108 97 92 105 112 112 113 42 40 43 42 40 37 37
93 89 75 76 74 60 64 67 52 61 57 53 49 54 54 60 49 46 67 45 53 63 48 56 86 64 70 92 97 96 99 101 90 104 107 109 111 39 34 37 37 31 29 26
95 93 88 64 80 68 74 72 70 67 65 44 42 64 45 60 47 47 47 64 53 74 48 81 85 62 70 90 97 75 91 108 93 105 111 107 55 32 28 27 30 28 22 18
Wind_Direction
126 120 127 122 109 116 107 119 112 115 112 113 119 132 112 103 103 106 127 108 68 64 84 233 240 231 218 237 223 248 246 270 254 262 229 247 240 273 266 267 262 255 269 280
130 121 122 131 122 122 130 119 129 130 144 112 114 131 125 132 140 136 126 143 135 114 98 228 208 237 195 186 209 233 218 233 266 261 275 239 237 238 250 271 265 252 238 265
94 125 123 122 126 121 118 122 128 145 117 182 126 126 134 163 136 168 156 174 171 160 168 186 232 220 238 237 239 231 262 276 240 276 269 268 274 246 250 260 254 256 282 265
156 132 130 125 135 124 130 136 134 136 152 135 147 139 160 156 176 152 173 168 178 174 184 193 210 214 216 251 255 232 262 218 224 239 227 248 253 250 267 257 259 254 251 266
113 138 137 131 138 141 139 144 144 150 161 140 139 169 149 176 175 183 159 175 189 185 197 203 213 196 230 240 220 239 228 223 225 229 234 244 280 271 259 261 260 254 264 269
159 145 132 136 124 144 139 105 152 159 171 150 172 161 182 167 173 184 183 193 193 197 210 208 211 219 226 220 223 212 262 255 260 254 235 234 233 248 250 277 257 277 262 269
348 151 147 79 144 152 145 120 159 166 183 166 170 181 175 182 187 197 174 187 196 201 202 223 221 212 231 213 229 247 231 249 229 234 242 242 245 243 263 266 249 268 275 271
50 213 116 68 93 122 160 176 175 171 206 181 202 201 190 200 197 201 199 199 202 206 211 212 227 231 240 247 227 230 281 245 233 256 259 267 252 246 260 247 258 259 263 276
298 61 350 63 74 103 83 145 160 177 192 241 212 220 216 230 229 223 207 211 216 265 212 239 227 224 249 226 276 227 236 232 264 242 244 266 253 255 258 262 264 275 275 272
293 266 279 339 65 71 75 76 75 137 110 137 140 177 211 229 255 125 244 196 216 220 214 240 266 220 248 246 234 258 238 278 279 254 264 264 251 268 280 253 278 262 277 279
284 78 46 26 66 97 244 83 83 90 87 88 86 89 88 88 89 88 81 237 241 229 236 229 239 249 232 264 253 269 272 258 279 253 251 277 271 271 259 269 260 278 267 273
20 304 208 42 56 78 82 88 90 81 233 93 91 72 75 86 86 85 87 91 100 238 247 246 247 248 256 248 262 253 255 272 270 273 280 258 272 281 262 267 260 275 275 269
277 279 309 262 291 312 280 98 88 289 84 85 88 75 78 123 88 95 308 76 16 313 290 275 266 284 273 272 262 264 262 268 268 266 266 281 273 268 280 271 276 264 271 265
255 265 291 253 271 271 306 186 358 319 111 98 226 157 208 356 119 262 201 242 280 271 290 302 284 254 255 255 267 290 292 273 286 280 282 282 292 284 288 293 289 285 270 268
253 250 265 249 275 278 250 290 312 321 307 266 274 271 250 330 304 274 283 289 288 253 277 302 259 305 290 273 304 273 263 281 266 274 301 307 301 306 301 298 293 289 285 273
255 248 255 278 254 268 257 285 274 301 281 308 272 311 268 285 311 286 248 290 298 296 284 294 278 312 303 302 299 296 306 290 295 303 307 314 299 314 302 311 310 268 287 279
237 242 252 253 272 239 241 274 265 290 261 270 293 300 308 320 318 260 281 305 286 297 265 303 283 301 302 311 293 298 310 300 309 325 320 318 319 318 315 315 303 301 298 296
238 236 243 250 249 263 271 266 261 271 280 249 268 270 274 299 281 278 296 328 283 290 286 287 292 302 307 314 285 306 303 321 321 330 323 321 322 319 321 306 307 306 300 289
244 240 239 243 248 251 250 257 266 277 278 249 269 251 269 278 277 283 305 301 323 297 280 293 308 291 312 299 305 326 304 325 328 329 325 326 324 326 312 314 315 307 302 288
239 244 243 241 245 250 254 257 258 258 258 262 262 268 267 284 273 276 291 289 313 299 316 294 307 322 324 306 327 308 329 331 329 330 327 328 329 331 318 322 323 316 309 289
238 243 248 244 243 247 252 254 259 263 265 267 270 273 275 276 289 277 276 295 300 298 317 303 298 305 304 322 330 310 331 331 330 331 328 329 332 324 325 326 328 324 314 302
237 237 246 250 253 250 248 251 255 261 265 268 271 274 278 276 284 276 279 286 289 303 313 309 315 323 311 306 325 328 332 331 330 333 329 331 334 326 328 330 332 343 321 308
239 257 238 245 249 255 258 256 257 260 265 269 269 274 272 285 291 280 280 297 296 291 307 308 321 309 319 326 311 330 332 332 332 332 330 333 334 329 330 332 333 340 351 323
235 236 248 239 246 252 250 259 261 264 265 268 272 272 275 286 268 285 277 302 303 308 309 303 320 307 315 322 327 328 331 332 332 329 330 334 336 330 331 332 333 339 347 356
235 235 245 254 242 245 250 254 257 260 264 267 271 275 281 279 291 273 297 285 291 306 301 303 313 309 323 325 324 329 331 330 329 329 330 335 338 329 330 332 332 336 342 350
235 235 239 240 237 245 249 251 255 259 262 265 268 273 276 281 287 273 294 284 290 307 304 304 315 311 310 325 325 329 332 330 328 328 330 335 339 326 328 329 331 330 336 340
230 235 235 245 240 241 241 245 250 255 259 256 264 272 268 280 279 280 286 293 286 303 308 312 314 314 310 324 325 323 330 329 328 328 331 335 331 321 324 323 327 328 328 331